Location: Hope
(40.9110°N, 74.9680°W)
Time: 08:21:38
(UTC-05:00)

N. Korean satellite - Visible Passes

Search period start: 01 December 2022 00:00
Search period end: 11 December 2022 00:00
Orbit: 421 x 453 km, 97.3° (Epoch: 01 December)

Date Brightness Start Highest point End Pass type
(mag) Time Alt. Az. Time Alt. Az. Time Alt. Az.
01 Dec 7.0 05:08:12 10° NNE 05:11:35 58° E 05:14:55 10° S visible
01 Dec 9.1 17:10:05 10° SSW 17:12:53 24° W 17:15:43 10° NW visible
02 Dec 9.3 04:30:19 10° NE 04:32:40 17° E 04:34:59 10° SE visible
02 Dec 7.5 06:02:21 10° NNW 06:05:08 24° WNW 06:07:54 10° SW visible
03 Dec 6.2 05:23:03 10° N 05:26:29 83° WNW 05:29:51 10° SSW visible
03 Dec 9.6 17:25:40 10° SW 17:27:49 16° W 17:29:59 10° NW visible
04 Dec 8.6 04:44:38 10° NE 04:47:34 26° E 04:50:27 10° SSE visible
04 Dec 8.0 06:17:41 10° NNW 06:19:50 16° WNW 06:21:58 10° WSW visible
05 Dec 6.5 05:37:53 10° N 05:41:11 50° WNW 05:44:27 10° SSW visible
05 Dec 10.2 17:42:06 10° W 17:42:39 10° W 17:43:12 10° W visible
06 Dec 7.6 04:59:03 10° NNE 05:02:17 41° E 05:05:28 10° S visible
06 Dec 8.4 06:33:33 10° NW 06:34:22 11° WNW 06:35:10 10° W visible
06 Dec 8.5 17:00:23 10° SSW 17:03:28 32° W 17:06:35 10° NNW visible
07 Dec 9.7 04:21:30 10° ENE 04:23:07 13° E 04:24:43 10° ESE visible
07 Dec 7.1 05:52:41 10° N 05:55:43 31° WNW 05:58:43 10° SW visible
08 Dec 6.6 05:13:27 10° NNE 05:16:50 69° E 05:20:09 10° S visible
08 Dec 9.4 17:15:22 10° SSW 17:18:02 21° W 17:20:42 10° NW visible
09 Dec 9.1 04:35:10 10° NE 04:37:40 19° E 04:40:09 10° SE visible
09 Dec 7.6 06:07:29 10° NNW 06:10:05 21° WNW 06:12:38 10° WSW visible
10 Dec 6.2 05:27:51 10° N 05:31:12 72° WNW 05:34:30 10° SSW visible
10 Dec 9.7 17:30:34 10° SW 17:32:28 14° W 17:34:22 10° WNW visible
